| time (UTC) | temp F | wind direction | speed MPH | gust MPH | rain 1hr in | rain 24hr in | rain mn in | humidity % | barometer mb |
| 20260505073044 | 55 | 360 | 1.0 | 7.0 | 0.00 | 0.11 | 0.00 | 53 | 1003.4 |
| 20260505071537 | 55 | 14 | 2.0 | 8.0 | 0.00 | 0.11 | 0.00 | 53 | 1003.2 |
| 20260505070041 | 56 | 17 | 2.0 | 7.0 | 0.00 | 0.11 | 0.00 | 51 | 1002.9 |
| 20260505064533 | 57 | 13 | 0.0 | 6.0 | 0.00 | 0.11 | 0.00 | 50 | 1002.7 |
| 20260505063029 | 57 | 310 | 3.0 | 7.0 | 0.00 | 0.11 | 0.00 | 49 | 1002.7 |
| 20260505061536 | 57 | 321 | 2.0 | 6.0 | 0.00 | 0.11 | 0.00 | 50 | 1002.6 |
| 20260505060026 | 58 | 355 | 0.0 | 4.0 | 0.00 | 0.11 | 0.00 | 50 | 1002.6 |
| 20260505054533 | 58 | 347 | 1.0 | 8.0 | 0.00 | 0.11 | 0.00 | 50 | 1002.6 |
| 20260505053028 | 58 | 10 | 2.0 | 6.0 | 0.00 | 0.11 | 0.00 | 49 | 1002.5 |
| 20260505051524 | 59 | 49 | 0.0 | 8.0 | 0.00 | 0.11 | 0.00 | 49 | 1002.6 |
| 20260505041529 | 61 | 336 | 1.0 | 4.0 | 0.00 | 0.11 | 0.11 | 63 | 1001.5 |
| 20260505040021 | 61 | 339 | 0.0 | 3.0 | 0.00 | 0.11 | 0.11 | 66 | 1001.2 |
| 20260505034522 | 61 | 340 | 0.0 | 4.0 | 0.00 | 0.11 | 0.11 | 71 | 1001.3 |
| 20260505033019 | 62 | 302 | 0.0 | 4.0 | 0.00 | 0.11 | 0.11 | 74 | 1001.3 |
| 20260505031531 | 63 | 211 | 1.0 | 6.0 | 0.00 | 0.11 | 0.11 | 72 | 1001.0 |
| 20260505030014 | 64 | 242 | 0.0 | 6.0 | 0.00 | 0.11 | 0.11 | 69 | 1000.9 |
| 20260505024514 | 65 | 213 | 2.0 | 8.0 | 0.00 | 0.11 | 0.11 | 66 | 1000.7 |
| 20260505023014 | 65 | 199 | 2.0 | 7.0 | 0.00 | 0.11 | 0.11 | 65 | 1000.1 |
| 20260505021513 | 64 | 190 | 3.0 | 8.0 | 0.00 | 0.11 | 0.11 | 67 | 1000.2 |
| 20260505020013 | 63 | 182 | 2.0 | 5.0 | 0.00 | 0.11 | 0.11 | 69 | 999.4 |
| 20260505014513 | 62 | 238 | 2.0 | 5.0 | 0.01 | 0.11 | 0.11 | 70 | 998.9 |
| 20260505013012 | 62 | 176 | 4.0 | 9.0 | 0.01 | 0.11 | 0.11 | 72 | 998.9 |
| 20260505011512 | 63 | 190 | 5.0 | 12.0 | 0.01 | 0.11 | 0.11 | 72 | 998.6 |
| 20260505010011 | 63 | 183 | 4.0 | 17.0 | 0.01 | 0.11 | 0.11 | 73 | 998.9 |
| 20260505004510 | 62 | 193 | 4.0 | 14.0 | 0.00 | 0.10 | 0.10 | 75 | 998.8 |
| 20260505003010 | 62 | 203 | 2.0 | 8.0 | 0.03 | 0.10 | 0.10 | 77 | 998.9 |
| 20260505001510 | 62 | 228 | 2.0 | 4.0 | 0.10 | 0.10 | 0.10 | 79 | 998.3 |
| 20260505000011 | 62 | 196 | 1.0 | 4.0 | 0.10 | 0.10 | 0.10 | 81 | 997.8 |
| 20260504234510 | 64 | 194 | 2.0 | 11.0 | 0.10 | 0.10 | 0.10 | 76 | 998.1 |
| 20260504233008 | 67 | 195 | 5.0 | 12.0 | 0.07 | 0.07 | 0.07 | 68 | 998.2 |
| 20260504231506 | 73 | 360 | 1.0 | 5.0 | 0.00 | 0.00 | 0.00 | 49 | 998.2 |
| 20260504230005 | 74 | 339 | 1.0 | 13.0 | 0.00 | 0.00 | 0.00 | 47 | 997.6 |
| 20260504224504 | 75 | 185 | 2.0 | 15.0 | 0.00 | 0.00 | 0.00 | 45 | 997.7 |
| 20260504223005 | 77 | 223 | 3.0 | 7.0 | 0.00 | 0.00 | 0.00 | 44 | 997.6 |
| 20260504221501 | 76 | 177 | 3.0 | 11.0 | 0.00 | 0.00 | 0.00 | 45 | 997.7 |
| 20260504220059 | 75 | 227 | 6.0 | 16.0 | 0.00 | 0.00 | 0.00 | 48 | 997.9 |
| 20260504214557 | 74 | 199 | 7.0 | 16.0 | 0.00 | 0.00 | 0.00 | 48 | 998.3 |
| 20260504213105 | 77 | 194 | 5.0 | 12.0 | 0.00 | 0.00 | 0.00 | 43 | 998.2 |
| 20260504211559 | 78 | 235 | 0.0 | 10.0 | 0.00 | 0.00 | 0.00 | 45 | 998.3 |
| 20260504210058 | 79 | 194 | 2.0 | 10.0 | 0.00 | 0.00 | 0.00 | 38 | 998.3 |
| 20260504204554 | 80 | 184 | 5.0 | 16.0 | 0.00 | 0.00 | 0.00 | 36 | 998.5 |
| 20260504203106 | 80 | 211 | 3.0 | 9.0 | 0.00 | 0.00 | 0.00 | 37 | 998.6 |
| 20260504201555 | 81 | 213 | 8.0 | 15.0 | 0.00 | 0.00 | 0.00 | 35 | 998.8 |
| 20260504200046 | 80 | 182 | 4.0 | 10.0 | 0.00 | 0.00 | 0.00 | 38 | 999.0 |
| 20260504194544 | 79 | 332 | 4.0 | 15.0 | 0.00 | 0.00 | 0.00 | 37 | 999.1 |
| 20260504193043 | 79 | 207 | 6.0 | 13.0 | 0.00 | 0.00 | 0.00 | 37 | 999.2 |
| 20260504191541 | 80 | 188 | 5.0 | 15.0 | 0.00 | 0.00 | 0.00 | 39 | 999.5 |
| 20260504190044 | 79 | 182 | 6.0 | 12.0 | 0.00 | 0.00 | 0.00 | 38 | 999.6 |
| 20260504184536 | 79 | 191 | 4.0 | 13.0 | 0.00 | 0.00 | 0.00 | 38 | 999.7 |
| 20260504183034 | 79 | 84 | 5.0 | 12.0 | 0.00 | 0.00 | 0.00 | 36 | 999.8 |
| 20260504181541 | 79 | 211 | 5.0 | 13.0 | 0.00 | 0.00 | 0.00 | 35 | 1000.0 |
| 20260504180030 | 78 | 178 | 2.0 | 11.0 | 0.00 | 0.00 | 0.00 | 34 | 1000.1 |
| 20260504174527 | 77 | 315 | 4.0 | 17.0 | 0.00 | 0.00 | 0.00 | 37 | 1000.2 |
| 20260504173024 | 76 | 196 | 4.0 | 12.0 | 0.00 | 0.00 | 0.00 | 39 | 1000.5 |
| 20260504171522 | 76 | 218 | 3.0 | 10.0 | 0.00 | 0.00 | 0.00 | 40 | 1000.7 |
| 20260504090114 | 53 | 217 | 0.0 | 6.0 | 0.00 | 0.06 | 0.00 | 72 | 1004.7 |
| 20260504081559 | 53 | 231 | 1.0 | 8.0 | 0.00 | 0.06 | 0.00 | 73 | 1004.4 |